Location: Newark
(58.8333°N, 23.5833°E)
Time: 23:59:35
(UTC+00:00)

A-11 Canister half - Pass Details

Date: 18 November 2019
Orbit: 1515 x 1685 km, 47.2° (Epoch: 10 December)

Event Time Altitude Azimuth Distance (km) Brightness Sun altitude
Enters shadow 22:36:48 - 279° (W) 4,949 11.7 -50.2°
Rises 22:36:49 0° 279° (W) 4,944 - -50.2°
Reaches altitude 10° 22:40:51 10° 266° (W) 3,947 - -50.1°
Maximum altitude 22:48:06 23° 220° (SW) 3,003 - -49.9°
Drops below altitude 10° 22:55:15 10° 173° (S) 3,874 - -49.7°
Sets 22:59:11 0° 160° (SSE) 4,832 - -49.5°
